Content
SEND FEEDBACK

Daily
Averages
Monthly
Summary
Madagascar

FORT DAUPHIN, MADAGASCAR


Home > Africa > Madagascar
Elevation: 30 feet     Latitude: 25 01N     Longitude: 046 57E

WEATHER
 
SELECT A DAY
Number of Records: 51,698;   Date Range: 1/17/97 - 8/18/14
 
SHARE

PRINT THIS DATA

[ ← Previous Day ]
WEATHER ALMANAC - FEBRUARY 13, 2013
[ Next Day → ]
[ °C ]   °F
Weather ElementAverageHighLow
Temperature79.7 °F86 °F (12:00 pm)75.2 °F (3:00 am)
Dewpoint71.7 °F73.4 °F (9:00 am)69.8 °F (3:00 am)
Humidity76.2 %89 % (6:00 am)58 % (3:00 pm)
Barometer29.90 in29.93 in (9:00 am)29.86 in (4:00 pm)
Wind Speed15.9 mph21.9 mph (1:00 pm)
Weather ElementAverage
Visibility8.5 mi
Wind DirectionE (95.6 °)

Weather ElementTotal
Precipitation---
Cooling Degree Days15.6 (Base 65)
Growing Degree Days30.6 (Base 50)
Averaged from 27 records on February 13, 2013
WEATHER CONDITIONS BREAKOUT
WIND DIRECTION BREAKOUT
WEATHER BY HOUR - FEBRUARY 13, 2013
[ °C ]   °F
Local TimeTemperatureDewpointHumidityBarometerVisibilityWind DirectionWind SpeedGust SpeedPrecipitationEventsConditions
1:00 AM77.0 °F71.6 °F83 %29.92 in6.2 miESE (120°)11.5 mphScattered Clouds
2:00 AM77.0 °F71.6 °F83 %29.92 in6.2 miESE (120°)11.5 mphScattered Clouds
3:00 AM76.0 °F70.0 °F76 %29.91 in12.0 miEast (80°)4.6 mphPartly Cloudy
3:00 AM75.2 °F69.8 °F83 %29.89 in6.2 miEast (80°)4.6 mphScattered Clouds
4:00 AM75.2 °F69.8 °F83 %29.89 in6.2 miEast (80°)4.6 mphScattered Clouds
5:00 AM75.2 °F69.8 °F83 %29.89 in6.2 miEast (80°)4.6 mphScattered Clouds
6:00 AM75.2 °F71.6 °F89 %29.89 in6.2 miEast (100°)6.9 mphScattered Clouds
7:00 AM78.8 °F71.6 °F78 %29.92 in6.2 miEast (100°)6.9 mphScattered Clouds
8:00 AM80.6 °F71.6 °F74 %29.92 in6.2 miEast (100°)13.8 mphPartly Cloudy
9:00 AM83.0 °F72.0 °F63 %29.93 in25.0 miEast (100°)16.1 mphPartly Cloudy
9:00 AM84.2 °F73.4 °F70 %29.92 in6.2 miEast (100°)16.1 mphPartly Cloudy
10:00 AM84.2 °F71.6 °F66 %29.92 in6.2 miEast (100°)18.4 mphPartly Cloudy
11:00 AM84.2 °F71.6 °F66 %29.92 in6.2 miEast (100°)18.4 mphPartly Cloudy
12:00 PM86.0 °F71.6 °F62 %29.89 in6.2 miEast (100°)18.4 mphPartly Cloudy
1:00 PM86.0 °F71.6 °F62 %29.89 in6.2 miEast (100°)21.9 mphScattered Clouds
2:00 PM84.2 °F69.8 °F62 %29.89 in6.2 miEast (100°)21.9 mphPartly Cloudy
3:00 PM85.0 °F72.0 °F58 %29.89 in25.0 miEast (100°)21.9 mphPartly Cloudy
3:00 PM84.2 °F71.6 °F66 %29.89 in6.2 miEast (100°)21.9 mphPartly Cloudy
4:00 PM84.2 °F73.4 °F70 %29.86 in6.2 miEast (100°)21.9 mphScattered Clouds
5:00 PM80.6 °F73.4 °F79 %29.86 in6.2 miEast (100°)20.7 mphScattered Clouds
6:00 PM78.8 °F73.4 °F83 %29.86 in6.2 miEast (100°)18.4 mphScattered Clouds
7:00 PM78.8 °F73.4 °F83 %29.89 in6.2 miEast (100°)18.4 mphMostly Cloudy
8:00 PM77.0 °F73.4 °F89 %29.89 in6.2 miEast (100°)18.4 mphMostly Cloudy
9:00 PM76.0 °F71.0 °F80 %29.91 in25.0 miEast (80°)21.9 mphMostly Cloudy
9:00 PM75.2 °F71.6 °F89 %29.89 in6.2 miEast (80°)21.9 mphScattered Clouds
10:00 PM75.2 °F71.6 °F89 %29.92 in6.2 miEast (80°)21.9 mphScattered Clouds
11:00 PM75.2 °F71.6 °F89 %29.89 in6.2 miEast (80°)21.9 mphScattered Clouds
Hourly data recorded from FMSD, located miles away from Fort Dauphin, Madagascar







STORIES FROM OUR PARTNERS